Location: Kirchen
(47.9089°N, 8.6718°E)
Time: 05:53:41
(UTC+00:00)

Daily predictions for brighter satellites

Satellite Brightness Start Highest point End
(mag) Time Altitude Azimuth Time Altitude Azimuth Time Altitude Azimuth
SL-16 R/B 4.4 00:16:47 24° NNE 00:16:47 24° NNE 00:19:43 10° N
ATLAS CENTAUR R/B 4.4 01:36:30 13° E 01:36:30 13° E 01:37:56 10° ENE
Resurs 1-4 Rocket 4.0 01:35:20 10° N 01:37:26 24° N 01:37:26 24° N
Cosmos 1697 Rocket 3.9 01:37:11 10° NNW 01:45:23 23° ESE 01:47:46 10° ESE
CZ-2D R/B 3.9 01:40:37 10° N 01:42:56 26° N 01:42:56 26° N
ALOS 4.4 01:49:31 10° NE 01:53:04 21° E 01:53:04 21° E
IDEFIX/ARIANE 42P 4.0 01:48:55 10° NNE 01:51:47 33° NNE 01:51:47 33° NNE
SL-16 R/B 4.3 02:01:53 20° NNW 02:01:53 20° NNW 02:03:42 10° NNW
IRS-1D 4.5 01:58:40 10° NNE 02:02:58 47° ENE 02:02:58 47° ENE
Lacrosse 4 Rocket 4.5 02:19:47 10° N 02:21:54 13° NE 02:24:02 10° ENE
Cosmos 1980 Rocket 3.4 02:18:03 10° NNW 02:23:20 41° NE 02:28:35 10° ESE
ADEOS II 3.3 02:20:06 10° N 02:23:08 32° NNW 02:23:08 32° NNW
Cosmos 1151 Rocket 4.3 02:28:12 39° NE 02:28:12 39° NE 02:31:19 10° NNE
Cosmos 1346 Rocket 4.5 02:30:39 31° E 02:30:39 31° E 02:33:48 10° NNE
Helios 1B rocket 4.4 02:27:28 10° NE 02:30:50 24° E 02:31:46 22° ESE
Cosmos 2369 4.4 02:29:06 10° NNW 02:34:40 52° ENE 02:40:10 10° SE
USA 305 4.2 02:36:49 38° ENE 02:36:49 38° ENE 02:39:27 10° ENE
ARIANE 5 R/B 4.3 02:34:57 10° NE 02:39:17 28° E 02:43:32 10° SSE
ATLAS 5 CENTAUR R/B 4.2 02:42:00 11° NNW 02:43:24 12° N 02:45:22 10° NNE
Cosmos 676 Rocket 4.2 02:43:18 10° NNW 02:48:32 70° ENE 02:53:46 10° SSE
Meteor 1-10 Rocket 4.2 02:53:16 44° S 02:55:06 77° E 03:00:45 10° NNE
Cosmos 1624 Rocket 4.0 02:56:12 60° S 02:57:10 81° ESE 03:02:32 10° NNE
Cosmos 1833 Rocket 2.6 03:01:05 63° WSW 03:01:52 74° WNW 03:07:33 10° NNE
CENTAUR R/B 3.8 02:58:53 14° S 03:03:05 34° ESE 03:09:06 10° NE
Cosmos 44 Rocket 4.0 03:02:24 36° SSE 03:03:42 47° ESE 03:08:13 10° NE
FENGYUN 3A 3.5 02:58:36 10° NNE 03:04:00 76° WNW 03:05:03 57° SW
Cosmos 1447 Rocket 4.4 03:02:05 10° NNW 03:08:24 71° W 03:14:35 10° S
Cosmos 1484 Rocket 4.4 03:07:14 10° NNE 03:10:54 34° E 03:14:31 10° SSE
Cosmos 1371 Rocket 3.9 03:10:55 57° SW 03:11:55 74° WNW 03:17:10 10° NNE
Atlas Centaur 2 4.3 03:12:00 20° SSW 03:12:39 20° SSW 03:18:01 10° SSE
ATLAS CENTAUR R/B 1.7 03:12:30 60° SSW 03:13:23 88° SE 03:18:17 10° NE
USA 307 2.8 03:13:49 69° NNW 03:13:51 69° NNW 03:18:00 10° ENE
Meteor 1-4 Rocket 3.7 03:10:25 10° N 03:12:36 34° N 03:12:36 34° N
METEOR-M 4.3 03:11:47 10° NNE 03:17:10 73° ESE 03:21:30 16° S
SL-19 R/B 4.4 03:11:04 10° NNE 03:17:19 79° WNW 03:20:31 29° SSW
Resurs 1-4 Rocket 4.3 03:17:33 10° NNW 03:18:30 11° NW 03:18:30 11° NW
ERBS 4.1 03:21:13 20° N 03:21:13 20° N 03:22:45 10° NE
IRS-P3 4.4 03:15:42 10° NNE 03:21:03 68° ESE 03:26:21 10° S
Cosmos 2082 Rocket 2.4 03:19:36 23° SSW 03:23:06 70° ESE 03:28:43 10° NNE
CZ-2D R/B 4.3 03:23:14 10° NNW 03:24:14 11° NW 03:24:14 11° NW
USA 306 3.0 03:24:27 51° NW 03:24:56 55° NNW 03:29:00 10° ENE
Cosmos 1697 Rocket 3.3 03:21:15 10° NW 03:27:50 34° SW 03:31:41 10° S
NOSS 3-2 (A) 4.0 03:24:48 16° S 03:28:57 49° ESE 03:34:58 10° NE
CZ-2C R/B 2.5 03:24:42 10° SSE 03:29:56 89° W 03:35:20 10° NNW
ALOS 2.5 03:26:13 10° N 03:30:43 49° WNW 03:31:32 44° WSW
BREEZE-M DEB (TANK) 1.9 03:32:42 71° N 03:32:47 72° N 03:35:06 10° E
IDEFIX/ARIANE 42P 4.4 03:30:01 10° NNW 03:32:34 15° NW 03:32:34 15° NW
Meteor 1-11 Rocket 3.8 03:27:13 10° NNW 03:33:05 58° W 03:38:53 10° S
Cosmos 1461 4.3 03:30:24 14° S 03:33:16 34° ESE 03:37:02 10° NE
Cosmos 1850 Rocket 4.4 03:28:35 10° NNW 03:33:55 68° ENE 03:39:14 10° SSE
Cosmos 1605 Rocket 4.4 03:33:50 33° WSW 03:35:20 39° WNW 03:41:01 10° N
Cosmos 1743 3.3 03:32:31 10° NNW 03:35:14 38° NW 03:35:14 38° NW
Cosmos 1459 Rocket 4.1 03:30:09 10° S 03:36:31 84° E 03:42:56 10° N
CZ-2C R/B 2.5 03:31:54 10° N 03:36:48 56° WNW 03:38:51 32° SW
COSMOS 2406 3.1 03:34:02 29° SW 03:37:03 74° WNW 03:42:46 10° NNE
CBERS-1 4.4 03:32:32 10° N 03:37:22 43° WNW 03:38:49 35° WSW
Cosmos 1954 Rocket 4.3 03:33:48 10° NW 03:38:44 42° WSW 03:43:40 10° S
Cosmos 2346 Rocket 4.3 03:34:11 10° NNW 03:40:15 75° W 03:46:20 10° S
PAYLOAD A 4.0 03:36:05 10° N 03:40:47 54° WNW 03:43:09 28° SW
Cosmos 2056 Rocket 3.8 03:40:20 34° WSW 03:41:55 45° WNW 03:46:51 10° NNE
Cosmos 1441 Rocket 3.2 03:42:10 47° WSW 03:42:39 51° WNW 03:46:21 10° N
DELTA 2 DEB (DPAF) 4.0 03:39:37 10° S 03:44:00 76° WSW 03:48:26 10° NNW
Cosmos 1633 Rocket 3.8 03:42:14 10° NNW 03:45:35 31° WNW 03:45:35 31° WNW
USA 308 3.3 03:46:41 33° WNW 03:48:07 49° NNW 03:52:08 10° ENE
Cosmos 1420 Rocket 4.3 03:46:30 30° WSW 03:48:42 47° WNW 03:53:44 10° NNE
X-37B 0.9 03:50:05 42° SSW 03:50:10 42° S 03:52:55 10° ESE
Cosmos 1802 Rocket 4.0 03:46:41 10° S 03:53:04 88° ESE 03:59:25 10° N
CZ-2C R/B 3.8 03:48:12 10° NNE 03:53:55 62° E 03:59:23 10° S
YAOGAN 6 2.5 03:51:14 10° NNE 03:54:53 89° ESE 03:58:29 10° SSW
Meteor 1-19 Rocket 4.1 03:53:30 10° S 03:58:56 89° E 04:04:23 10° NNE
Cosmos 1725 Rocket 4.2 03:52:48 10° S 03:59:06 78° E 04:05:27 10° NNE
H-2A R/B 3.4 03:55:32 10° NNE 03:59:07 52° E 04:02:42 10° S
Cosmos 1933 Rocket 3.5 03:54:51 10° NNW 03:59:16 67° W 04:03:38 10° S
Cosmos 2322 Rocket 3.4 03:53:58 10° NNW 03:59:26 44° NE 04:04:50 10° SE
CZ-2C R/B 4.0 03:57:27 10° NNE 04:01:05 42° E 04:04:45 10° S
Lacrosse 4 Rocket 2.0 03:57:04 10° NNW 04:01:24 61° NE 04:05:46 10° SE
Cosmos 1328 Rocket 4.3 04:00:53 25° WSW 04:02:17 31° WNW 04:06:15 10° N
Cosmos 1536 3.7 03:59:38 10° NNW 04:03:04 27° W 04:03:44 25° WSW
Cosmos 1741 Rocket 3.9 03:58:30 10° NNW 04:03:44 75° WSW 04:08:55 10° SSE
PSLV R/B 4.4 04:00:25 10° NNE 04:04:41 52° E 04:08:51 10° S
Cosmos 1151 Rocket 4.5 04:05:02 18° WNW 04:05:02 18° WNW 04:08:03 10° NNW
Spot 4 Rocket 4.2 04:00:13 10° NNE 04:05:23 78° ESE 04:10:31 10° SSW
Helios 1B rocket 3.1 04:02:19 10° N 04:06:00 34° WNW 04:07:56 22° WSW
Cosmos 1346 Rocket 4.0 04:06:05 22° W 04:06:33 23° WNW 04:09:46 10° NNW
Cosmos 1980 Rocket 2.6 04:02:11 10° NW 04:07:17 37° WSW 04:12:22 10° S
Cosmos 2173 Rocket 4.0 04:03:52 10° SSW 04:09:51 55° WNW 04:15:51 10° N
Meteor 2-9 Rocket 4.2 04:07:08 10° NNW 04:12:47 60° W 04:18:16 10° S
USA 234 4.1 04:06:55 10° ENE 04:13:12 47° SE 04:19:27 10° SSW
GP-B 3.0 04:09:11 10° S 04:13:35 65° W 04:18:01 10° N
USA 305 3.7 04:12:19 18° WNW 04:14:58 38° N 04:18:50 10° ENE
SKYMED 2 4.2 04:13:29 10° SSE 04:17:45 60° ENE 04:22:03 10° N
ARIANE 5 R/B 2.9 04:13:47 10° N 04:18:31 42° WNW 04:23:11 10° SW
Cosmos 2369 4.5 04:13:45 10° NW 04:18:33 29° WSW 04:23:18 10° SSW
Cosmos 1331 Rocket 4.1 04:13:27 10° SSW 04:18:35 81° ESE 04:23:46 10° NNE
CZ-2D R/B 3.9 04:19:41 10° N 04:23:23 38° WNW 04:27:06 10° SW
SL-08 R/B 3.7 04:20:23 10° SSW 04:24:43 38° W 04:29:11 10° NNW
SL-24 R/B - RUBIN 2 3.7 04:20:56 10° SSW 04:25:21 75° SE 04:29:44 10° NE
Cosmos 2278 3.9 04:20:06 10° NW 04:25:32 48° WSW 04:30:55 10° S
Cosmos 1515 Rocket 4.3 04:22:29 10° SW 04:26:30 33° WNW 04:30:35 10° N
SL-16 R/B 2.2 04:22:18 10° NNW 04:28:00 89° WSW 04:33:42 10° SSE
ATLAS 5 CENTAUR R/B 4.2 04:26:19 10° NNW 04:29:49 19° NNE 04:33:46 10° ENE
Cosmos 1110 Rocket 3.9 04:26:42 10° SSW 04:31:54 74° WNW 04:37:07 10° NNE
NOAA 11 4.2 04:27:00 10° NNE 04:32:32 89° ESE 04:38:00 10° SSW
BREEZE M DEB (TANK) 3.5 04:20:45 10° WSW 04:32:48 81° SSE 04:36:22 10° ENE
MINOTAUR 4 R/B 3.9 04:30:08 10° S 04:33:37 72° WSW 04:37:08 10° NNW
Cosmos 2228 Rocket 3.1 04:29:37 10° S 04:34:07 88° W 04:38:36 10° N
Cosmos 1452 Rocket 3.8 04:29:27 10° SW 04:34:33 49° WNW 04:39:43 10° NNE
USA 290 4.2 04:37:25 10° N 04:40:21 31° ENE 04:43:16 10° SE
Cosmos 1733 3.8 04:36:44 10° N 04:40:26 59° ENE 04:44:07 10° SSE
Envisat 3.3 04:36:14 10° N 04:41:04 44° WNW 04:45:51 10° SW
CZ-4C R/B 3.9 04:37:40 10° S 04:41:39 41° W 04:45:46 10° NNW
Meteor 2-19 Rocket 4.4 04:37:42 10° NNW 04:43:53 74° W 04:50:00 10° S
Cosmos 1484 Rocket 4.0 04:41:48 10° NNW 04:45:00 23° WNW 04:48:10 10° WSW
Meteor 1-18 Rocket 4.2 04:39:33 10° SSW 04:45:12 65° WNW 04:50:49 10° N
Cosmos 44 Rocket 4.1 04:41:09 10° WSW 04:45:22 32° NW 04:49:37 10° NNE
Okean 1 4.4 04:42:41 10° SW 04:46:06 26° WNW 04:49:31 10° NNW
Cosmos 1378 4.1 04:43:21 10° SW 04:46:28 27° WNW 04:49:37 10° NNW
Cosmos 1833 Rocket 4.3 04:43:04 10° W 04:46:49 18° NW 04:50:36 10° N
Meteor 1-29 3.9 04:46:50 10° N 04:49:36 26° WNW 04:52:23 10° SW
OPS 6432 4.3 04:47:03 10° NW 04:49:58 54° SW 04:53:16 10° SSE
BREEZE-M DEB (TANK) 4.5 04:33:18 10° WSW 04:50:10 88° NNW 04:54:22 10° ENE
Cosmos 968 Rocket 3.4 04:46:30 10° NNW 04:51:42 79° WSW 04:56:49 10° SSE
ATLAS CENTAUR R/B 3.2 04:48:52 10° W 04:52:45 23° NNW 04:56:36 10° NNE
Cosmos 2016 Rocket 4.4 04:46:45 10° SW 04:52:45 43° WNW 04:58:48 10° N
SJ 16-02 4.0 04:49:41 10° N 04:53:07 22° NE 04:56:31 10° ESE
CENTAUR R/B 2.8 04:47:24 10° WSW 04:53:20 59° NW 05:00:34 10° NE
USA 307 3.9 04:49:52 10° WNW 04:53:42 35° N 04:57:33 10° ENE
Cosmos 1939 Rocket 3.7 04:50:41 10° NNE 04:54:41 57° E 04:58:36 10° S
Meteor 1-31 Rocket 3.9 04:50:59 10° NNE 04:54:42 49° E 04:58:26 10° S
Cosmos 2219 Rocket 3.8 04:49:35 10° NNW 04:54:51 37° NE 05:00:02 10° ESE
COSMOS 2455 3.2 04:49:58 10° NNW 04:56:01 74° NE 05:02:02 10° SE
